#timestamp,LO_Frequency,Hit,StdDev 
1571720415.6,286047002.4,N
1571720435.4,286047004.2,N
1571720455.2,286047001.8,N
1571720475.0,286047003.6,N
1571720476.0,286047003.6,N
1571720495.8,286047002.9,N
1571720515.6,286047001.4,N
1571720535.4,286047002.2,N
1571720555.3,286047000.1,N
1571720575.1,286047002.8,N
1571720595.8,286047002.3,N
1571720615.7,286047002.5,N
1571720635.5,286047002.7,N
1571720655.3,286047001.4,N
1571720675.2,286047005.8,Y
1571720695.0,286047002.1,P
1571720695.9,286047002.1,P
1571720715.8,286047002.3,P
1571720735.6,286047001.6,Y
1571720755.4,286047002.7,P
1571720775.3,286047002.7,P
1571720795.1,286047002.8,P
1571720796.0,286047002.8,Y
1571720815.8,286046998.7,P
1571720835.7,286046998.9,N
1571720855.5,286047004.3,N
1571720875.3,286047001.4,N
1571720895.2,286047000.0,N
1571720915.9,286047000.3,N
1571720935.7,286047002.5,N
1571720955.6,286047004.4,N
1571720975.4,286047001.3,N
1571720995.2,286046999.7,N
1571721015.0,286047002.6,N
1571721016.0,286047002.6,N
1571721035.8,286047002.5,N
1571721055.6,286047002.8,N
1571721075.5,286047001.1,N
1571721095.3,286047000.7,N
1571721115.1,286047011.9,Y
1571721135.9,286047001.8,P
1571721155.7,286047005.9,P
1571721175.5,286047003.1,N
1571721195.4,286047004.1,N
1571721215.2,286047001.3,N
1571721235.0,286047003.8,N
1571721235.9,286047003.8,N
1571721255.8,286047005.4,Y
1571721275.6,286047001.9,P
1571721295.4,286046999.7,N
1571721315.3,286047000.6,N
1571721335.1,286047000.9,N
1571721336.0,286047000.9,N
1571721355.8,286047000.7,N
1571721375.7,286047001.0,N
1571721395.5,286046998.1,N
1571721415.3,286046998.3,N
1571721435.2,286047000.2,N
1571721455.9,286047000.0,N
1571721475.7,286047000.1,N
1571721495.6,286047002.2,N
1571721515.4,286047001.4,N
1571721535.2,286047003.9,Y
1571721555.1,286047002.3,P
1571721556.0,286047002.3,N
1571721575.8,286047000.1,N
1571721595.6,286047002.0,N
1571721615.5,286047004.0,Y
1571721635.3,286047002.3,P
1571721655.1,286047001.4,P
1571721675.9,286047001.8,P
1571721695.7,286047002.6,Y
1571721715.5,286046999.0,P
1571721735.4,286046999.4,N
1571721755.2,286046998.7,N
1571721775.0,286046999.4,N
1571721775.9,286046999.4,N
1571721795.8,286046996.5,Y
1571721815.6,286046995.3,P
1571721835.4,286046993.8,N
1571721855.3,286046993.6,N
1571721875.1,286046995.7,N
1571721876.0,286046995.7,N
1571721895.8,286046995.1,N
1571721915.7,286046993.4,Y
1571721935.5,286047001.1,P
1571721955.3,286046998.2,N
1571721975.2,286046999.1,N
1571721995.9,286046996.7,N
1571722015.7,286046996.6,N
1571722035.6,286046996.8,N
1571722055.4,286046995.4,N
1571722075.2,286046997.1,N
1571722095.1,286046997.6,N
1571722096.0,286046997.6,N
1571722115.8,286046998.0,N
1571722135.6,286046995.0,Y
1571722155.5,286046998.7,P
1571722175.3,286046999.0,N
1571722195.1,286046996.6,P
1571722215.9,286046997.4,N
1571722235.7,286046995.3,Y
1571722255.5,286046997.0,P
1571722275.4,286046996.1,P
1571722295.2,286046997.9,P
1571722315.0,286046995.4,Y
1571722315.9,286046995.4,P
1571722335.8,286046998.7,N
1571722355.6,286046996.5,N
1571722375.4,286046995.1,Y
1571722395.3,286046998.1,P
1571722415.1,286046999.2,N
1571722416.0,286046999.2,N
1571722435.8,286046999.6,N
1571722455.7,286046997.9,N
1571722475.5,286046997.5,N
1571722495.3,286046993.7,Y
1571722515.2,286046995.9,P
1571722535.9,286046993.4,P
1571722555.7,286046996.4,N
1571722575.6,286046996.1,N
1571722595.4,286046996.1,N
1571722615.2,286046997.4,N
1571722635.1,286046995.2,Y
1571722636.0,286046995.2,P
1571722655.8,286046996.6,P
1571722675.6,286046997.1,P
1571722695.5,286046995.4,Y
1571722715.3,286046998.8,P
1571722735.1,286046999.0,N
1571722755.9,286046997.2,N
1571722775.7,286046998.0,N
1571722795.5,286046995.2,Y
1571722815.4,286046997.8,P
1571722835.2,286046995.8,P
1571722855.0,286046995.1,P
1571722855.9,286046995.1,Y
1571722875.8,286046999.2,P
1571722895.6,286046998.6,N
1571722915.4,286046997.2,N
1571722935.3,286046996.0,Y
1571722955.1,286046997.1,P
1571722975.8,286046999.5,N
1571722995.7,286046998.0,N
1571723015.5,286046995.6,Y
1571723035.3,286046995.3,P
1571723055.2,286046995.7,P
1571723075.0,286046997.0,N
1571723075.9,286046997.0,N
1571723095.7,286046998.0,N
1571723115.6,286046996.1,Y
1571723135.4,286046995.8,P
1571723155.2,286046993.8,P
1571723175.1,286046996.2,P
1571723176.0,286046996.2,Y
1571723195.8,286046999.4,P
1571723215.6,286046999.0,N
1571723235.5,286046999.0,N
1571723255.3,286046999.0,N
1571723275.1,286046999.2,N
1571723295.9,286046997.1,N
1571723315.7,286046997.6,N
1571723335.5,286046995.0,Y
1571723355.4,286046997.8,P
1571723375.2,286046995.5,P
1571723395.0,286046996.1,P
1571723395.9,286046996.1,Y
1571723415.8,286046998.8,P
1571723435.6,286046999.0,N
1571723455.4,286046998.8,N
1571723475.3,286046998.4,N
1571723495.1,286046999.2,N
1571723515.8,286046999.6,N
1571723535.7,286046999.3,N
1571723555.5,286046996.6,Y
1571723575.3,286046998.7,P
1571723595.2,286046999.3,P
1571723615.9,286046997.2,P
1571723635.7,286046998.0,N
1571723655.6,286046995.7,Y
1571723675.4,286046995.4,P
1571723695.2,286046996.3,N
1571723715.1,286046995.2,P
1571723716.0,286046995.2,Y
1571723735.8,286046999.5,P
1571723755.6,286046997.1,N
1571723775.5,286046999.6,N
1571723795.3,286046999.3,N
1571723815.1,286046999.6,N
1571723835.9,286046997.7,N
1571723855.7,286046996.2,Y
1571723875.5,286046996.7,P
1571723895.4,286046999.5,N
1571723915.2,286046999.5,N
1571723935.0,286046996.7,N
1571723935.9,286046996.7,N
1571723955.8,286046999.0,N
1571723975.6,286046999.2,N
1571723995.4,286046996.8,N
